If you wish to contribute or participate in the discussions about articles you are invited to join SKYbrary as a registered user

EBCI

From SKYbrary Wiki
Airport
ICAO: EBCI
Summary
Name Brussels South Charleroi Airport
Region Europe
Territory Belgium BE.gif
Location Charleroi
Main city served
Coordinates 50° 27' 45.7017", 4° 27' 42.252"
More airports
in EB
EBAW, EBLG
Runways
Designator Length Width Surface
7/25 2550 m8,366.142 ft 45 m147.638 ft ASP


METAR
Observation EBCI 052250Z 25007KT 3000 BR SCT004 BKN006 04/03 Q1020 NOSIG
Station Charleroi / Gosselies
Date/Time 05 December 2014 22:50:00
Wind direction 250°
Wind speed 07 kts
Lowest cloud amount scattered clouds
Temperature 4°C
Dew point 3°C
Humidity 93%
QNH 1020 hPa
Weather condition n/a


Charleroi Brussels South Airport

ICAO: EBCI IATA: CRL

Description

Charleroi airport is an international airport located in Gosselies, 46 km24.838 nm
46,000 m
150,918.635 ft
south of Brussels.

Climatology

Temperate Marine climate/Oceanic climate (Köppen climate classification Cfb). Moderately cool summer and comparatively warm winter with a temperature range of only 14°C287.15 K
57.2 °F
516.87 °R
. Prevailing south-westerly winds from the Atlantic Ocean.

Maps

Terrain

Airport Layout

Accidents & Serious Incidents at or in vicinity of EBCI

None on SKYbrary